Location: Monroe
(41.3286°N, 74.1872°W)
Time: 00:35:48
(UTC+00:00)

Hubble Space Telescope - Visible Passes

Search period start: 25 January 2026 00:00
Search period end: 04 February 2026 00:00
Orbit: 478 x 481 km, 28.5° (Epoch: 24 January)

Date Brightness Start Highest point End Pass type
(mag) Time Alt. Az. Time Alt. Az. Time Alt. Az.
26 Jan 3.3 00:18:52 10° SSW 00:19:22 11° S 00:19:22 11° S visible
26 Jan 3.1 23:48:58 10° SSW 23:50:17 12° S 23:51:12 11° SSE visible
27 Jan 3.1 23:19:01 10° SSW 23:20:21 12° S 23:21:40 10° SSE visible
28 Jan 3.2 22:49:03 10° SSW 22:50:22 12° S 22:51:42 10° SSE visible
